KOREASAT 7              
1 42691U 17023A   19259.86850174 -.00000368  00000-0  00000-0 0  9998
2 42691   0.0162 109.9399 0001808  68.5200 245.6171  1.00272102  8651
SGDC                    
1 42692U 17023B   19259.22216412 -.00000258  00000-0  00000+0 0  9997
2 42692   0.0258  87.2236 0002327  88.0344 184.7577  1.00273142  8725
ARIANE 5 R/B            
1 42693U 17023C   19259.44072428  .00002246  00000-0  80579-3 0  9990
2 42693   4.0318  13.2050 7264073 178.8990 185.0937  2.29960053 19812
ARIANE 5 DEB [SYLDA]    
1 42694U 17023D   19260.45176503  .00017930  00000-0  39084-2 0  9993
2 42694   3.9610 339.1951 7013208 252.0685  24.9515  2.62749823 21503